Weather History for Chicago Midway, IL

Change the Weather History Date:

Sunday, March 10, 2013

  Actual Average Record
Temperature  
Mean Temperature 49 °F 37 °F  
Max Temperature 55 °F 44 °F 70 °F (1955)
Min Temperature 42 °F 29 °F 5 °F (2003)
Degree Days  
Heating Degree Days 16 28  
Month to date heating degree days 319 300  
Since 1 July heating degree days 4471 4811  
Cooling Degree Days 0 0  
Month to date cooling degree days 0 0  
Year to date cooling degree days 0 0  
Moisture  
Dew Point 43 °F    
Average Humidity 82    
Maximum Humidity 93    
Minimum Humidity 54    
Precipitation  
Precipitation 1.00 in 0.08 in 1.12 in (2009)
Month to date precipitation 1.02 0.85  
Year to date precipitation 5.27 4.85  
Sea Level Pressure  
Sea Level Pressure 29.75 in    
Wind  
Wind Speed 9 mph (South)    
Max Wind Speed 24 mph    
Max Gust Speed 33 mph    
Visibility 7 miles    
Events Rain    
T = Trace of Precipitation, MM = Missing Value Source: NWS Daily Summary

Daily Weather History Graph

Daily Weather History Graph

Search for Another Location

Airport:

Trip Planner

Search our weather history database for the weather conditions in past years. The results will help you decide how hot, cold, wet, or windy it might be!

Date:

Astronomy

Mar. 10, 2013 Rise Set
Actual Time 7:10 AM CDT 6:52 PM CDT
Civil Twilight 6:43 AM CDT 7:19 PM CDT
Nautical Twilight 6:10 AM CDT 7:52 PM CDT
Astronomical Twilight 5:38 AM CDT 8:24 PM CDT
Moon 6:11 AM CDT (3/10) 5:59 PM CDT (3/10)
Length of Visible Light 12h 36m
Length of Day
11h 41m
Waning Crescent, 2% of the Moon is Illuminated
Mar 10
Waning Crescent
Mar 11
New
Mar 19
First Quarter
Mar 27
Full
Apr 2
Last Quarter

Hourly Weather History & Observations

Time (CDT) Temp. Windchill Dew Point Humidity Pressure Visibility Wind Dir Wind Speed Gust Speed Precip Events Conditions
12:51 AM 46.9 °F - 30.9 °F 54% 29.87 in 10.0 mi South 6.9 mph - 0.00 in Rain Light Rain
1:51 AM 43.0 °F 37.2 °F 37.0 °F 80% 29.90 in 3.0 mi SSW 10.4 mph - 0.08 in Rain Light Rain
3:51 AM 42.1 °F 36.6 °F 37.9 °F 85% 29.85 in 3.0 mi South 9.2 mph - 0.12 in Rain Light Rain
4:18 AM 42.8 °F 37.0 °F 39.2 °F 87% 29.82 in 2.0 mi South 10.4 mph - 0.13 in Rain Rain
4:51 AM 43.0 °F 36.8 °F 41.0 °F 93% 29.84 in 2.0 mi South 11.5 mph - 0.20 in Rain Rain
5:13 AM 44.6 °F 39.2 °F 41.0 °F 87% 29.82 in 5.0 mi South 10.4 mph - 0.00 in Rain Light Rain
5:51 AM 44.1 °F 39.0 °F 41.0 °F 89% 29.85 in 6.0 mi SSE 9.2 mph - 0.06 in Rain Light Rain
6:51 AM 44.6 °F 40.2 °F 41.0 °F 87% 29.82 in 4.0 mi South 8.1 mph - N/A Rain Light Rain
7:51 AM 43.0 °F 38.2 °F 39.0 °F 86% 29.82 in 6.0 mi SSE 8.1 mph - 0.02 in Rain Light Rain
8:51 AM 44.1 °F 39.0 °F 39.9 °F 85% 29.77 in 7.0 mi SE 9.2 mph - 0.01 in Rain Light Rain
9:42 AM 46.4 °F 41.5 °F 42.8 °F 87% 29.81 in 6.0 mi SSW 10.4 mph 21.9 mph 0.03 in Rain Light Rain
9:45 AM 46.4 °F 40.7 °F 42.8 °F 87% 29.81 in 6.0 mi SW 12.7 mph 21.9 mph 0.04 in Rain Light Rain
9:51 AM 46.0 °F 40.6 °F 42.1 °F 86% 29.82 in 7.0 mi SSW 11.5 mph 18.4 mph 0.04 in Rain Light Rain
10:05 AM 46.4 °F 41.5 °F 42.8 °F 87% 29.79 in 9.0 mi South 10.4 mph - 0.00 in Rain Light Rain
10:51 AM 48.0 °F - 41.0 °F 77% 29.81 in 8.0 mi South 8.1 mph - 0.00 in Rain Light Rain
11:51 AM 48.9 °F - 42.1 °F 77% 29.78 in 9.0 mi South 8.1 mph - 0.02 in   Overcast
12:51 PM 51.1 °F - 41.0 °F 68% 29.81 in 10.0 mi South 11.5 mph 20.7 mph N/A   Overcast
1:51 PM 53.1 °F - 43.0 °F 69% 29.75 in 9.0 mi South 9.2 mph 18.4 mph 0.00 in   Overcast
2:46 PM 51.8 °F - 44.6 °F 76% 29.71 in 10.0 mi Calm Calm - 0.01 in   Overcast
2:51 PM 52.0 °F - 44.1 °F 74% 29.72 in 10.0 mi SW 3.5 mph - 0.01 in   Overcast
3:45 PM 51.8 °F - 44.6 °F 76% 29.72 in 2.0 mi SE 4.6 mph - 0.04 in Rain Rain
3:51 PM 51.1 °F - 45.0 °F 80% 29.74 in 2.0 mi SSE 4.6 mph - 0.06 in Rain Rain
4:51 PM 51.1 °F - 48.0 °F 89% 29.70 in 1.5 mi East 5.8 mph - 0.15 in Rain Light Rain
5:11 PM 51.8 °F - 48.2 °F 88% 29.68 in 2.0 mi East 5.8 mph - 0.02 in Rain Light Rain
5:51 PM 50.0 °F - 46.9 °F 89% 29.69 in 2.0 mi East 6.9 mph - 0.08 in Rain Light Rain
6:10 PM 50.0 °F - 46.4 °F 87% 29.65 in 4.0 mi East 9.2 mph - 0.02 in Rain Light Rain
6:51 PM 51.1 °F - 46.0 °F 83% 29.63 in 10.0 mi ESE 10.4 mph - 0.02 in   Overcast
7:51 PM 55.4 °F - 44.6 °F 67% 29.65 in 10.0 mi South 11.5 mph - N/A   Overcast
8:51 PM 53.1 °F - 46.0 °F 77% 29.66 in 10.0 mi South 18.4 mph 29.9 mph 0.01 in Rain Light Rain
9:51 PM 52.0 °F - 48.0 °F 86% 29.66 in 10.0 mi South 10.4 mph - 0.00 in Rain Light Rain
10:51 PM 51.1 °F - 46.9 °F 86% 29.66 in 10.0 mi SSW 9.2 mph - 0.00 in   Overcast
11:51 PM 50.0 °F - 46.0 °F 86% 29.65 in 10.0 mi SSW 8.1 mph - 0.00 in   Overcast
12:13 AM 50.0 °F - 46.4 °F 87% 29.65 in 10.0 mi SSW 10.4 mph - N/A   Overcast
12:22 AM 50.0 °F - 46.4 °F 87% 29.64 in 10.0 mi SSW 8.1 mph - N/A   Overcast
12:44 AM 48.2 °F - 46.4 °F 93% 29.63 in 10.0 mi SSW 8.1 mph - 0.00 in   Overcast
12:51 AM 48.9 °F - 46.0 °F 90% 29.64 in 10.0 mi SSW 9.2 mph - 0.00 in   Overcast